www.pogodaiklimat.ru

Погода и климат >> Архив погоды >> Вьетнам >> Ханой


АРХИВ ПОГОДЫ в Ханое

Время (UTC), дата Ветер
(напр.,м/с)
 
Видим.   Явления Облачность Т
(С)
Тd
(С)
f
(%)
Тe
(С)
Тes
(С)
Комфортность P
(гПа)
Po
(гПа)
Тmin
(С)
Tmax
(С)
R
(мм)
R24
(мм)
S
(см)
00 19.06 штиль 0 16 км 8/8
[Cu Sc]
+27.8 +26.1 90 +42 +43 опасность
перегрева
1005.1 1001.5 +27.2 3
06 19.06 В 2 20 км {дождь} 5/5 300 м
[Cu med, cong]
+33.6 +25.9 64 +49 +59 опасность
перегрева
1003.6 1000.0 0.6
12 19.06 ЮВ 3 20 км 3/1
[Cu med, cong Ci fib]
+31.4 +27.1 78 +49 +49 опасность
перегрева
1002.2 998.6 +34.3 0.6 4
18 19.06 ЮВ 1 20 км 8/8 300 м
[Cu Sc]
+28.8 +27.1 91 +46 +46 опасность
перегрева
1003.9 1000.3
00 20.06 ЮВ 2 20 км 5/5 300 м
[Cu med, cong]
+29.2 +26.8 87 +46 +47 опасность
перегрева
1004.6 1001.0 +28.2
06 20.06 ЮВ 3 20 км 8/8 300 м
[Cu Sc]
+33.3 +27.4 71 +52 +56 опасность
перегрева
1003.6 1000.0
12 20.06 ЮВ 2 20 км 5/3 300 м
[Cu hum Ci fib]
+32.3 +28.0 78 +53 +53 опасность
перегрева
1001.6 998.0 +34.0
18 20.06 штиль 0 20 км ясно +29.2 +27.4 90 +47 +47 опасность
перегрева
1002.4 998.8
00 21.06 ЮВ 2 20 км 9/9 300 м
[Cu Sc]
+29.9 +27.8 89 +49 +49 опасность
перегрева
1003.2 999.6 +28.8
06 21.06 В 3 20 км 3/3 300 м
[Cu hum]
+35.1 +26.7 62 +52 +65 опасность
перегрева
1001.8 998.3
12 21.06 ЮВ 2 20 км 3/3 1500 м
[Sc]
+33.6 +28.4 74 +55 +55 опасность
перегрева
999.7 996.2 +36.9
18 21.06 В 2 20 км ясно +29.6 +27.9 91 +49 +49 опасность
перегрева
1001.5 997.9
00 22.06 штиль 0 20 км 8/8 300 м
[Cu Sc]
+30.6 +28.0 86 +51 +51 опасность
перегрева
1002.1 998.5 +29.1
06 22.06 ЮВ 3 20 км 5/5 300 м
[Cu med, cong]
+35.4 +27.5 64 +55 +63 опасность
перегрева
999.2 995.7
12 22.06 ЮВ 2 20 км 3/3 300 м
[Cu hum Ci fib]
+33.4 +28.3 75 +55 +55 опасность
перегрева
998.5 995.0 +37.4
18 22.06 В 2 20 км 3/3 300 м
[Cu hum]
+30.2 +28.1 89 +50 +50 опасность
перегрева
999.6 996.0
00 23.06 ЮВ 1 20 км 10/10 300 м
[Cu Sc]
+30.4 +27.3 84 +49 +49 опасность
перегрева
1001.6 998.0 +29.9
06 23.06 ЮВ 1 20 км 9/9 300 м
[Cu Sc]
+33.7 +27.7 71 +54 +56 опасность
перегрева
1001.8 998.2
12 23.06 СВ 2 20 км {дождь} 8/8 300 м
[Cu Sc]
+31.1 +26.0 74 +46 +46 опасность
перегрева
1002.0 998.4 +34.2 0.0
18 23.06 штиль 0 10 км гроза без осадков 9/9 300 м
[Cb cap]
+27.5 +24.7 85 +39 +39 очень
душно
1003.7 1000.1 0.0
00 24.06 штиль 0 4000 м гроза, ливневой дождь 10/10
[Cb cap]
+24.2 +23.6 96 +33 +33 очень
душно
1005.6 1001.9 +24.0 23
06 24.06 штиль 0 16 км слаб. дождь {гроза} 9/9 300 м
[Cu Sc]
+26.2 +24.6 91 +37 +40 очень
душно
1005.6 1001.9 42
12 24.06 В 1 10 км {дождь} 9/9 300 м
[Cu Sc]
+26.6 +24.7 89 +38 +38 очень
душно
1002.7 999.0 +27.0 42
18 24.06 штиль 0 10 км 10/10 300 м
[Cu Sc]
+26.6 +25.6 94 +39 +39 очень
душно
1005.0 1001.3
00 25.06 штиль 0 16 км 10/10 300 м
[Cu Sc]
+26.6 +25.7 95 +39 +39 очень
душно
1005.3 1001.6 +26.1
06 25.06 В 1 20 км 9/9 300 м
[Cu Sc]
+30.2 +26.3 80 +46 +49 опасность
перегрева
1004.0 1000.4
12 25.06 штиль 0 20 км 9/9 300 м
[Cu Sc]
+31.6 +27.2 78 +50 +50 опасность
перегрева
1002.0 998.4 +32.5

 

Местоположение метеостанции Ханой (Вьетнам): широта 21.03 долгота 105.80 высота над уровнем моря 6 м.

В архиве по умолчанию представлена погода в Ханое за последнюю неделю. Архивные данные за месяц целиком и за предыдущие месяцы, начиная с января 2011 года, Вы можете получить, выбрав интересующий диапазон дат из раскрывающегося списка и нажав кнопку "Ввод!".


*Определитесь, кто Вы:
робот инопланетянин человек

Внимание! Время в таблицах - всемирное. Для получения местного времени необходимо прибавить поправку, которая равна 7 ч.

Смотрите также архив погоды в соседних городах и на ближайших метеорологических станциях:

Погода в Хайфоне (Вьетнам) (7 км)
Погода в Намдине (Вьетнам) (76 км)
Погода в Пхульене (Вьетнам) (90 км)
Погода в Баккане (Вьетнам) (125 км)
Погода в Лангсоне (Вьетнам) (133 км)
Погода в Тханьхоа (Вьетнам) (142 км)
Погода во Вьенгсае (Лаос) (177 км)
Погода в Лончжоу (Гуанси-Чжуанский автономный район, Китай) (178 км)
Погода в Каобанге (Вьетнам) (188 км)
Погода в Самныа (Лаос) (192 км)

Пояснения к столбцам:

Ветер - указаны скорость ветра в м/с - средняя за 10 мин, порывы в срок и между сроками (в фигурных скобках) и направление, откуда дует ветер: С - северный, СВ - северо-восточный, В - восточный, ЮВ - юго-восточный, Ю - южный, ЮЗ - юго-западный, З - западный, СЗ - северо-западный.
Видимость - горизонтальная дальность видимости в метрах или километрах. При видимости от 1 до 10 км при отсутствии осадков обычно наблюдается дымка, при ухудшении видимости до 1 км и менее - туман. В сухую погоду видимость может ухудшаться дымом, пылью или мглою.
Явления - указаны атмосферные явления, наблюдавшиеся в срок или в последний час перед сроком; фигурными скобками обозначены явления, наблюдавшиеся между сроками (за 1-3 часа до срока); квадратными скобками обозначены град или гололедные отложения с указанием их диаметра в мм.
Облачность - указаны через наклонную черту общая и нижняя облачность в баллах и высота нижней границы облаков в метрах; квадратными скобками обозначены формы облаков: Ci - перистые, Cs - перисто-слоистые, Cc - перисто-кучевые, Ac - высококучевые, As - высокослоистые, Sc - слоисто-кучевые, Ns - слоисто-дождевые, Cu - кучевые, Cb - кучево-дождевые. Подробнее классификацию облаков см. в Атласе облаков (PDF).
T - Температура воздуха - температура, измеренная на высоте 2 м над землей.
Td - Температура точки росы - температура, при понижении до которой содержащийся в воздухе водяной пар достигнет насыщения.
f - Относительная влажность воздуха - влажноcть воздуха, измеренная на высоте 2 м над землей.
Te - Эффективная температура - температура, которую ощущает одетый по сезону человек в тени. Характеристика душности погоды. При расчете учитывается влияние влажности воздуха и скорости ветра на теплоощущения человека.
Tes - Эффективная температура на солнце - температура, которую ощущает человек, с поправкой на солнечный нагрев. Характеристика знойности погоды. Зависит от высоты солнца над горизонтом, облачности и скорости ветра. Ночью, в пасмурную погоду, а также при ветре 12 м/с и более поправка равна нулю.
P - Атмосферное давление - приведенное к уровню моря атмосферное давление.
Po - Атмосферное давление - измеренное на уровне метеостанции атмосферное давление.
Tmin - Минимальная температура - минимум температуры воздуха на высоте 2 м над землей.
Tmax - Максимальная температура - максимум температуры воздуха на высоте 2 м над землей.
R - Количество осадков - Количество выпавших осадков за период времени, мм. При наведении курсора мыши на число - период времени, за который выпало указанное количество осадков.
R24 - Количество осадков - Количество выпавших осадков за 24 часа, мм.
S - Снежный покров - Высота снежного покрова, см. При наведении курсора мыши на число - состояние снежного покрова и степень покрытия местности в баллах.